{"data":{"norad_id":46906,"intl_designator":"2020-081B","name":"KSM1-C","alt_names":[],"object_type":"PAYLOAD","status":"ACTIVE","operator":null,"country":"LUXE","launch_date":"2020-11-07","launch_site_code":"SRILR","launch_vehicle":null,"mission":null,"orbit_class":"UNKNOWN","rcs_meters":null,"size_class":null,"mass_kg":null,"dimensions":null,"purposes":[],"wikipedia_slug":null,"has_3d_model":false,"image_url":null,"decayed_at":null,"tle_current":{"epoch":"2026-09-20T04:54:58.887936Z","epoch_age_seconds":99221,"freshness":"FRESH","line1":"1 46906U 20081B   26263.20484824  .00006130  00000+0  22183-3 0  9995","line2":"2 46906  36.8913 191.7036 0004447 288.2420  71.7845 15.28106921323701","mean_motion":15.28106921,"eccentricity":0.0004447,"inclination_deg":36.8913,"raan_deg":191.7036,"arg_perigee_deg":288.242,"mean_anomaly_deg":71.7845,"bstar":0.00022183,"rev_number":32370,"period_min":94.234243704469,"perigee_km":478.42129038687,"apogee_km":484.52222641659,"semimajor_km":6859.6087584017,"source":"CELESTRAK","updated_at":"2026-09-20T09:00:14.800404Z"}}}